Location: F?ge?el
(45.8833°N, 22.5833°E)
Time: 05:17:13
(UTC+00:00)

ARIANE 5 R/B - Pass Details

Date: 17 November 2025
Orbit: 746 x 792 km, 98.8° (Epoch: 04 December)

Event Time Altitude Azimuth Distance (km) Brightness Sun altitude
Rises 16:38:13 0° 185° (S) 3,177 5.9 -17.6°
Reaches altitude 10° 16:40:38 10° 193° (SSW) 2,257 5.2 -18.0°
Maximum altitude 16:45:15 39° 262° (W) 1,119 3.9 -18.8°
Drops below altitude 10° 16:49:56 10° 331° (NNW) 2,280 5.2 -19.6°
Sets 16:52:23 0° 339° (NNW) 3,213 5.9 -20.1°
